Location: Bijele Vode
(45.2833°N, 16.2000°E)
Time: 14:17:26
(UTC+00:00)

Sich 1 Rocket - Pass Details

Date: 18 September 2020
Orbit: 616 x 653 km, 82.5° (Epoch: 29 October)

Event Time Altitude Azimuth Distance (km) Brightness Sun altitude
Rises 17:42:08 0° 170° (S) 2,911 6.8 -8.2°
Reaches altitude 10° 17:44:25 10° 163° (SSE) 2,014 5.9 -8.6°
Maximum altitude 17:48:39 43° 92° (E) 901 4.0 -9.3°
Drops below altitude 10° 17:52:57 10° 22° (NNE) 2,051 6.1 -10.1°
Sets 17:55:18 0° 15° (NNE) 2,971 7.0 -10.5°
